Location: Shepherdstown, WV
(39.4326°N, 77.8042°W)
Time: 06:28:38
(UTC-04:00)

Vanguard 1 - Pass Details

Date: 06 August 2021
Orbit: 652 x 3831 km, 34.3° (Epoch: 24 September)

Event Time Altitude Azimuth Distance (km) Brightness Sun altitude
Rises 17:36:29 0° 259° (W) 4,455 14.6 29.6°
Reaches altitude 10° 17:41:36 10° 233° (SW) 4,091 14.2 28.7°
Maximum altitude 17:45:55 13° 209° (SSW) 4,351 13.9 27.8°
Drops below altitude 10° 17:51:11 10° 187° (S) 5,155 13.9 26.8°
Sets 18:00:06 0° 165° (SSE) 6,981 14.3 25.1°
